Home   Weather   Rustenburg   Past weeks

Flag for South Africa Past Weather in Rustenburg, South Africa — Yesterday and Last 2 Weeks

Now
68 °F

Passing clouds.


Feels Like: 68 °F
Forecast: 49 / 76 °F
Wind: 10 mph from Southeast

Location: Lanseria Civ / Mil

Current Time: Apr 29, 2017 at 11:51:56 am

Latest Report: Apr 29, 2017 at 11:00 am


Visibility: N/A

Pressure: 30.51 "Hg (26.63 "Hg at 1166m altitude)

Humidity: 30%

Dew Point: 36 °F

Location of RustenburgLocation

Past Weather in Rustenburg — Graph

°F

Rustenburg Temperature Yesterday

Maximum temperature yesterday: 75 °F (at 2:00 pm)
Minimum temperature yesterday: 50 °F (at 1:00 am)
Average temperature yesterday: 61 °F

High & Low Weather Summary for the Past Weeks

 TemperatureHumidityPressure
High77 °F (Apr 19, 3:00 pm)94% (Apr 15, 4:00 am)30.51 "Hg (Apr 15, 4:00 am)
Low46 °F (Apr 21, 5:00 am)16% (Apr 19, 4:00 pm)30.12 "Hg (Apr 18, 3:00 pm)
Average60 °F61%30.29 "Hg
* Reported Apr 14 10:00 am — Apr 29 10:00 am, Rustenburg, Weather by CustomWeather, © 2017

Note: Actual official high and low records may vary slightly from our data, if they occured in-between our weather recording intervals... More about our weather records

Advertising

Rustenburg Weather History for the Previous 24 Hours

Scroll right to see more
 ConditionsComfort  
Time TempWeatherWind HumidityBarometerVisibility
10:00 am
Sat, Apr 29
64 °FSunny.5 mph56%30.51 "Hg10 mi
9:00 am61 °FClear.7 mph59%30.51 "Hg5 mi
8:14 am59 °FClear.2 mph72%30.51 "Hg5 mi
8:00 am55 °FClear.No wind77%30.51 "Hg5 mi
7:00 am52 °FClear.No wind82%30.51 "Hg5 mi
6:00 am52 °FClear.2 mph82%30.48 "Hg10 mi
5:00 am52 °FClear.No wind82%30.48 "Hg10 mi
4:00 am54 °FCool.6 mph77%30.48 "HgN/A
2:00 am57 °FCool.7 mph67%30.48 "HgN/A
1:00 am57 °FCool.6 mph63%30.48 "HgN/A
10:00 pm
Fri, Apr 28
61 °FClear.7 mph55%30.45 "Hg10 mi
9:00 pm63 °FClear.7 mph52%30.45 "Hg10 mi
8:00 pm61 °FClear.2 mph52%30.42 "Hg10 mi
7:00 pm66 °FClear.6 mph43%30.42 "Hg10 mi
6:00 pm70 °FClear.6 mph38%30.39 "Hg10 mi
5:00 pm72 °FPassing clouds.7 mph36%30.39 "HgN/A
4:00 pm73 °FScattered clouds.6 mph31%30.39 "HgN/A
2:00 pm75 °FScattered clouds.9 mph27%30.39 "HgN/A
1:00 pm73 °FScattered clouds.5 mph31%30.39 "HgN/A
12:00 pm70 °FPassing clouds.6 mph38%30.42 "HgN/A
11:00 am68 °FSunny.2 mph43%30.45 "Hg10 mi
Weather by CustomWeather, © 2017

See weather overviewHow to use our weather pages